This is the latest recevied weather packets stored in our database for station/object KE8WAY. If no packets are shown the sender has not sent any weather packets the latest 10 day(s).
| Time | Temp. | Humidity | Pressure | Rain* | Wind** | Luminosity | Snow |
|---|---|---|---|---|---|---|---|
| 1778166913 | 12.22° C | 46% | 1012.3 hPa | 0 mm | - | 845 W/m² | - |
| 1778166611 | 11.67° C | 46% | 1012.3 hPa | 0 mm | - | 848 W/m² | - |
| 1778166307 | 11.67° C | 48% | 1012.3 hPa | 0 mm | - | 791 W/m² | - |
| 1778166004 | 12.22° C | 51% | 1012.3 hPa | 0 mm | - | 769 W/m² | - |
| 1778165699 | 11.67° C | 51% | 1012.3 hPa | 0 mm | - | 784 W/m² | - |
| 1778165396 | 11.67° C | 49% | 1012.4 hPa | 0 mm | - | 761 W/m² | - |
| 1778165093 | 11.67° C | 47% | 1012.5 hPa | 0 mm | - | 691 W/m² | - |
| 1778164790 | 12.22° C | 50% | 1012.6 hPa | 0 mm | - | 720 W/m² | - |
| 1778164488 | 11.11° C | 51% | 1012.4 hPa | 0 mm | - | 702 W/m² | - |
| 1778164185 | 11.11° C | 49% | 1012.4 hPa | 0 mm | - | 679 W/m² | - |
| 1778163880 | 11.11° C | 55% | 1012.7 hPa | 0 mm | - | 666 W/m² | - |
| 1778163578 | 11.11° C | 52% | 1012.5 hPa | 0 mm | - | 655 W/m² | - |
| 1778163273 | 11.11° C | 53% | 1012.6 hPa | 0 mm | - | 645 W/m² | - |
| 1778162970 | 11.11° C | 58% | 1012.6 hPa | 0 mm | - | 622 W/m² | - |
| 1778162667 | 11.11° C | 54% | 1012.6 hPa | 0 mm | - | 577 W/m² | - |
| 1778162365 | 10.56° C | 58% | 1012.7 hPa | 0 mm | - | 570 W/m² | - |
| 1778162061 | 10.56° C | 57% | 1012.7 hPa | 0 mm | - | 545 W/m² | - |
| 1778161759 | 10° C | 59% | 1012.9 hPa | 0 mm | - | 547 W/m² | - |
| 1778161455 | 10.56° C | 61% | 1012.6 hPa | 0 mm | - | 498 W/m² | - |
| 1778161151 | 10° C | 63% | 1012.9 hPa | 0 mm | - | 476 W/m² | - |
| 1778160846 | 10° C | 61% | 1012.9 hPa | 0 mm | - | 402 W/m² | - |
| 1778160540 | 10° C | 62% | 1012.9 hPa | 0 mm | - | 377 W/m² | - |
| 1778160236 | 9.44° C | 62% | 1012.7 hPa | 0 mm | - | 347 W/m² | - |
| 1778159933 | 9.44° C | 63% | 1013 hPa | 0 mm | - | 328 W/m² | - |
| 1778159630 | 9.44° C | 64% | 1012.9 hPa | 0 mm | - | 319 W/m² | - |
* Rain latest hour (hover to see other rain measurements)
** Current wind speed in m/s (hover to see current wind gust speed)